Showing default

APSTAR 6D, 45863

Orbit data source: Space-Track

APSTAR 6D, 45863 is a payload satellite owned by APT Shenzhen (CN) in GEO that was launched on Thu, 09 Jul 2020 UTC via a CHANG ZHENG 3B launch vehicle from the Xichang Space Center, China (XSC). Payloads include a variety of satellites, spacecraft, and rockets equipped with specific instruments for various scientific and technological missions. These include communications satellites like Starlink; space stations such as the ISS; scientific satellites like the Hubble; Earth observation satellites from companies like Planet Labs, Umbra, and HawkEye 360; GPS; miniature CubeSats for education and research; and military/defense satellites.

Not visible in the next 10 days
APSTAR 6D details
Identifier
45863, 2020-045A
Orbit
GEO
Last TLE update3 days ago
Origin
Flag of CNAPT Shenzhen (CN / PRC)
ManufacturerCAST
MissionOperational Commercial Communications
Bus & MotorDFH-4E, DFH-4 LAE
Mass~5,000 kg wet, ~2,500 kg dry
Launch date (UTC)
2020-07-09 (4 years ago)
Launch vehicle
CHANG ZHENG 3B
Launch site
Xichang Space Center, China (XSC)
Object type
Payload
Rocket body
Debris
Shape & HBRBox + 2 Pan, Unknown HBR
Radar Cross Section34.063 m², Large (>1 m²)

Expand to show TLE details & history

TLE from 3 days ago
0 APSTAR 6D
1 45863U 20045A   24358.67653799 -.00000297  00000-0  00000-0 0  9990
2 45863   0.0358 236.6424 0003470  10.9022 222.6948  1.00270553 16440
Epoch: 2024-12-23T16:14Z
Definitive object data (Epoch: 2024-12-23T16:14:12.882Z)
Latitude-0.00406°
Longitude133.96027°
Altitude35,797.247 km
Speed3.074 km/s
True Right ascension07h 20m 50s
True Declination0° 00' 15"
Sunlit
Object was in daylight at TLE epoch
Visualization TLE readout
Latitude0.01859°
Longitude66.49948°
Altitude35,800.09 km
Speed3.074 km/s
Apparent Right ascension02h 29m 30s
Apparent Declination-5° 09' 51"
Sunlit
Object is in daylight
Visualization observer readout
Local Sidereal Time10:54:35
Azimuth291.052° WNW
Elevation-30.643°
Doppler factor1
Orbital elements
Apogee altitude35,802.642 km
Perigee altitude35,773.379 km
Semi-major axis42,166.148 km
Eccentricity0.000347
Inclination0.0358°
RAAN236.6424°
Arg. of periapsis10.9022°
True anomaly222.66785°
Mean anomaly222.6948°
Eccentric anomaly222.68132°
Mean motion0.25067 °/min
BSTARUnknown
Orbital period1436.17 mins
Loading historical data...
45863 neighbors
Authenticating...
Loading maneuver chart data...
Loading historical data...
Loading historical data...
Loading historical data...
Loading historical data...
Loading historical data...
Loading historical data...
Loading historical data...
Other satellites on launch #45 in the year 2020 (2020-07-09 UTC)

APSTAR 6D Visibility forecast

Observer location: undefined°, undefined

APSTAR 6D is not visible in the next 10 days
Span
Click to sort rows by Start time (UTC) header in descending order
Start Az.
Max El. time (UTC)
Max El. Az.
Max El.
End time (UTC)
End Az.
|